OpenBCM V1.08-5-g2f4a (Linux)

Packet Radio Mailbox

IZ3LSV

[San Dona' di P. JN]

 Login: GUEST





  
CX2SA  > KEPS     19.04.13 05:03l 94 Lines 2399 Bytes #999 (0) @ WW
BID : ORB13108.O
Read: GUEST
Subj: Orbital Elements  13108.OSCAR
Path: IZ3LSV<IR1UAW<IK1NHL<CX2SA
Sent: 130419/0256Z @:CX2SA.SAL.URY.SA #:5357 [Salto] FBB7.00e $:ORB13108.O
From: CX2SA@CX2SA.SAL.URY.SA
To  : KEPS@AMSAT


HR AMSAT ORBITAL ELEMENTS FOR OSCAR SATELLITES
FROM WA5QGD FORT WORTH,TX April 18, 2013
BID: ORB13108.O
TO ALL RADIO AMATEURS BT

Satellite: AO-07
Catalog number: 07530
Epoch time:      13107.85599324
Element set:     658
Inclination:      101.4279 deg
RA of node:       099.5603 deg
Eccentricity:    0.0012251
Arg of perigee:   048.0518 deg
Mean anomaly:     014.8098 deg
Mean motion:   12.53595622 rev/day
Decay rate:       -2.3e-07 rev/day^2
Epoch rev:           75822
Checksum:              302

Satellite: FO-29
Catalog number: 24278
Epoch time:      13107.80669990
Element set:      94
Inclination:      098.5606 deg
RA of node:       174.4290 deg
Eccentricity:    0.0349705
Arg of perigee:   320.7145 deg
Mean anomaly:     151.6163 deg
Mean motion:   13.52998305 rev/day
Decay rate:       -4.1e-07 rev/day^2
Epoch rev:           82314
Checksum:              320

Satellite: SO-33
Catalog number: 25509
Epoch time:      13107.28554588
Element set:     476
Inclination:      031.4330 deg
RA of node:       052.4257 deg
Eccentricity:    0.0351222
Arg of perigee:   344.7456 deg
Mean anomaly:     173.5223 deg
Mean motion:   14.29009837 rev/day
Decay rate:       5.99e-06 rev/day^2
Epoch rev:           75617
Checksum:              313

Satellite: RS-22
Catalog number: 27939
Epoch time:      13108.53287353
Element set:     335
Inclination:      097.7991 deg
RA of node:       299.4981 deg
Eccentricity:    0.0013938
Arg of perigee:   020.7943 deg
Mean anomaly:     339.3808 deg
Mean motion:   14.64393517 rev/day
Decay rate:       4.96e-06 rev/day^2
Epoch rev:           51056
Checksum:              350

Satellite: VO-52
Catalog number: 28650
Epoch time:      13108.59326242
Element set:     399
Inclination:      097.5713 deg
RA of node:       130.2516 deg
Eccentricity:    0.0027675
Arg of perigee:   116.5626 deg
Mean anomaly:     029.5019 deg
Mean motion:   14.83721511 rev/day
Decay rate:      1.088e-05 rev/day^2
Epoch rev:           43024
Checksum:              297

Satellite: HO-68
Catalog number: 36122
Epoch time:      13108.61245215
Element set:     471
Inclination:      100.3129 deg
RA of node:       167.1566 deg
Eccentricity:    0.0007677
Arg of perigee:   128.8276 deg
Mean anomaly:     231.3521 deg
Mean motion:   13.16303303 rev/day
Decay rate:       -4.4e-07 rev/day^2
Epoch rev:           16057
Checksum:              267



Read previous mail | Read next mail


 16.09.2025 09:47:47lGo back Go up